Weather reports worldwide

Advertisment
Bergerac, France (7530): temperature & dewpoint: 06.12.2018 00:00:00 - 12.12.2018 00:00:00 (CET)Bergerac, France (7530): temperature 5cm: 06.12.2018 00:00:00 - 12.12.2018 00:00:00 (CET)Bergerac, France (7530): temperature -20cm & temperature -100cm: 06.12.2018 00:00:00 - 12.12.2018 00:00:00 (CET)Bergerac, France (7530): wind speed & gusts: 06.12.2018 00:00:00 - 12.12.2018 00:00:00 (CET)Bergerac, France (7530): wind direction: 06.12.2018 00:00:00 - 12.12.2018 00:00:00 (CET)Bergerac, France (7530): reduced air pressure: 06.12.2018 00:00:00 - 12.12.2018 00:00:00 (CET)Bergerac, France (7530): visibility: 06.12.2018 00:00:00 - 12.12.2018 00:00:00 (CET)Bergerac, France (7530): sunshine duration: 06.12.2018 00:00:00 - 12.12.2018 00:00:00 (CET)Bergerac, France (7530): precipitation: 06.12.2018 00:00:00 - 12.12.2018 00:00:00 (CET)
Date & Time tt [°C] td [°C] tt 5cm [°C] tt -20cm [°C] tt -100cm [°C] ff [km/h] ff [kn] fx [km/h] fx [kn] dd ppp [hPa] vv [km] sd [min] rr [mm]
12.12.2018 00:00:00 -0,9 -1,3 -3,1 9,2 12,7 3 2 11 6 E 1022,0 2,8 0 0,0
11.12.2018 23:00:00 -0,4 -0,7 -2,8 9,3 12,7 7 4 10 5 ENE 1021,7 8 0 0,0
11.12.2018 22:00:00 -0,1 -0,7 -2,3 9,4 12,7 3 1 8 5 N 1021,7 7 0 0,0
11.12.2018 21:00:00 0,9 0,5 -1,9 9,5 12,8 5 3 8 5 E 1021,9 12 0 0,0
11.12.2018 20:00:00 1,5 0,8 -1,6 9,5 12,8 4 2 6 3 E 1021,7 12 0 0,0
11.12.2018 19:00:00 2,2 1,0 -0,7 9,5 12,8 2 1 4 2 SSW 1021,8 17 0 0,0
11.12.2018 18:00:00 4,7 2,2 -0,1 9,5 12,8 3 1 9 5 SSE 1021,8 36 0 0,0
11.12.2018 17:00:00 7,5 2,4 4,7 9,4 12,8 6 3 16 9 E 1021,8 56 47 0,0
11.12.2018 16:00:00 9,1 3,3 10,1 9,4 12,8 9 5 13 7 E 1022,1 45 60 0,0
11.12.2018 15:00:00 9,2 3,2 11,5 9,3 12,8 10 5 21 12 ENE 1022,2 29 60 0,0
11.12.2018 14:00:00 8,8 4,4 11,7 9,3 12,8 15 8 23 12 ENE 1023,3 19 60 0,0
11.12.2018 13:00:00 6,8 5,6 9,5 9,2 12,8 11 6 18 10 ENE 1024,3 14 60 0,0
11.12.2018 12:00:00 4,9 4,9 5,0 9,3 12,8 7 4 13 7 NE 1025,2 14 32 0,0
11.12.2018 11:00:00 2,6 2,6 2,7 9,3 12,8 5 3 9 5 ENE 1026,0 0,5 3 0,0
11.12.2018 10:00:00 1,3 1,3 0,5 9,4 12,8 5 3 8 5 E 1025,9 0,2 1 0,0
11.12.2018 09:00:00 0,3 0,3 0,0 9,5 12,8 3 2 8 4 ESE 1026,0 0,1 0 0,0
11.12.2018 08:00:00 0,2 0,2 -0,4 9,5 12,8 3 2 10 5 E 1026,1 0,2 0 0,0
11.12.2018 07:00:00 0,0 -0,1 -1,0 9,7 12,9 6 3 11 6 E 1026,3 0,2 0 0,0
11.12.2018 06:00:00 -0,5 -0,6 -1,0 9,7 12,8 6 3 9 5 E 1026,9 0,2 0 0,0
11.12.2018 05:00:00 -0,6 -0,7 -1,8 9,9 12,8 5 3 10 6 ENE 1027,7 0,2 0 0,0
11.12.2018 04:00:00 -0,6 -0,7 -2,3 10,0 12,9 5 3 8 4 E 1028,3 0,2 0 0,0
11.12.2018 03:00:00 -0,8 -1,1 -2,6 10,1 12,9 3 1 8 4 ENE 1028,8 1,3 0 0,0
11.12.2018 02:00:00 -0,4 -0,7 -2,6 10,2 12,8 4 2 7 4 E 1028,9 2,9 0 0,0
11.12.2018 01:00:00 -0,1 -0,2 -2,1 10,3 12,8 3 2 9 5 E 1029,7 3,0 0 0,0
11.12.2018 00:00:00 0,3 0,0 -2,1 10,5 12,9 4 2 6 3 ENE 1030,1 2,7 0 0,0
10.12.2018 23:00:00 0,7 0,4 -1,7 10,6 12,9 2 1 7 4 SE 1030,2 3,3 0 0,0
10.12.2018 22:00:00 1,4 1,1 -1,4 10,6 12,9 7 4 8 5 E 1030,3 0,9 0 0,0
10.12.2018 21:00:00 1,9 1,5 -0,9 10,7 12,9 5 3 7 4 ENE 1030,8 1,5 0 0,0
10.12.2018 20:00:00 3,0 2,4 -0,5 10,8 12,9 2 1 5 3 E 1031,2 8 0 0,0
10.12.2018 19:00:00 4,1 3,1 0,1 10,8 12,9 2 1 6 3 E 1031,2 5 0 0,0
10.12.2018 18:00:00 6,5 5,0 1,6 10,8 12,9 5 3 9 5 WSW 1030,8 16 0 0,0
10.12.2018 17:00:00 8,6 5,9 5,4 10,7 12,9 9 5 11 6 WNW 1031,2 20 17 0,0
10.12.2018 16:00:00 9,2 5,9 8,3 10,7 12,9 9 5 18 10 WNW 1031,4 20 0 0,0
10.12.2018 15:00:00 11,6 6,3 10,4 10,6 12,9 8 4 18 10 NW 1031,6 20 40 0,0
10.12.2018 14:00:00 10,6 6,9 10,7 10,5 12,9 9 5 18 10 NW 1032,1 19 35 0,0
10.12.2018 13:00:00 11,0 8,0 13,1 10,5 12,9 6 3 11 6 W 1032,7 17 45 0,0
10.12.2018 12:00:00 9,0 8,7 10,4 10,5 12,9 6 3 10 6 W 1033,5 11 36 0,0
10.12.2018 11:00:00 7,5 7,4 7,1 10,6 12,9 4 2 6 4 NE 1033,7 5 8 0,0
10.12.2018 10:00:00 5,5 5,4 3,2 10,6 12,9 3 1 5 3 NE 1033,7 0,3 24 0,0
10.12.2018 09:00:00 4,5 4,4 3,8 10,7 12,9 3 2 5 3 SW 1033,5 4,4 0 0,0
10.12.2018 08:00:00 3,8 3,7 2,4 10,8 12,9 3 2 7 4 ENE 1033,2 0,8 0 0,0
10.12.2018 07:00:00 2,6 2,3 0,6 10,9 12,9 2 1 5 3 SE 1032,8 0,3 0 0,0
10.12.2018 06:00:00 3,1 2,8 0,7 11,0 12,9 2 1 5 3 ENE 1032,6 0,2 0 0,0
10.12.2018 05:00:00 3,9 3,6 0,3 11,1 12,9 2 1 4 2 NNW 1032,7 0,4 0 0,0
10.12.2018 04:00:00 5,4 5,1 0,5 11,2 12,9 3 1 8 5 NW 1032,7 0,3 0 0,0
10.12.2018 03:00:00 5,9 5,5 1,4 11,3 12,9 7 4 13 7 WNW 1032,7 7 0 0,0
10.12.2018 02:00:00 6,5 6,1 2,1 11,3 12,9 8 4 12 7 W 1032,5 12 0 0,0
10.12.2018 01:00:00 7,1 6,2 3,2 11,4 12,9 9 5 19 10 WNW 1032,6 11 0 0,0
10.12.2018 00:00:00 9,4 7,7 8,2 11,4 12,9 15 8 28 15 W 1032,2 14 0 0,0
09.12.2018 23:00:00 9,9 8,2 8,4 11,5 12,9 15 8 26 14 W 1031,7 15 0 0,0
09.12.2018 22:00:00 9,7 8,0 7,7 11,5 12,9 16 8 26 14 W 1031,4 13 0 0,0
09.12.2018 21:00:00 9,1 7,9 7,3 11,5 12,9 14 8 24 13 W 1030,8 11 0 0,0
09.12.2018 20:00:00 9,6 8,0 8,0 11,5 12,9 17 9 33 18 W 1030,0 14 0 0,0
09.12.2018 19:00:00 10,1 8,5 7,8 11,5 12,9 16 9 36 20 W 1029,2 16 0 0,4
09.12.2018 18:00:00 11,4 7,7 9,7 11,6 12,9 18 10 34 19 W 1028,0 15 0 0,0
09.12.2018 17:00:00 11,5 7,2 10,1 11,5 12,9 18 10 30 16 WNW 1027,5 15 13 0,0
09.12.2018 16:00:00 11,5 7,4 10,0 11,5 12,9 22 12 46 25 W 1027,0 19 10 0,0
09.12.2018 15:00:00 11,9 8,7 10,4 11,4 12,9 23 13 57 31 W 1026,4 15 2 0,2
09.12.2018 14:00:00 12,0 9,7 10,4 11,4 12,9 23 12 44 24 W 1025,9 12 1 0,0
09.12.2018 13:00:00 12,3 8,9 10,5 11,4 12,9 27 15 39 21 W 1026,2 13 7 0,0
09.12.2018 12:00:00 10,9 9,5 10,4 11,3 12,9 26 14 55 30 WNW 1026,4 7 2 0,4
09.12.2018 11:00:00 13,1 9,5 12,4 11,3 12,9 28 15 42 23 W 1026,2 10 6 0,0
09.12.2018 10:00:00 12,7 9,5 11,8 11,3 12,9 27 15 40 21 W 1025,3 10 7 0,0
09.12.2018 09:00:00 12,4 9,8 10,6 11,3 12,9 24 13 49 26 WSW 1024,6 10 0 0,0
09.12.2018 08:00:00 12,4 9,8 10,8 11,3 12,9 24 13 44 24 WSW 1024,5 10 0 0,0
09.12.2018 07:00:00 12,4 9,9 11,3 11,3 12,9 22 12 38 21 WSW 1024,1 11 0 0,0
09.12.2018 06:00:00 12,5 9,9 11,1 11,3 12,9 21 12 34 19 W 1024,1 12 0 0,4
09.12.2018 05:00:00 12,6 10,7 11,4 11,2 12,9 22 12 38 21 W 1024,0 16 0 0,0
09.12.2018 04:00:00 13,2 10,6 12,2 11,2 12,9 25 13 37 20 W 1024,1 36 0 0,0
09.12.2018 03:00:00 13,2 10,9 11,9 11,2 12,9 21 12 54 29 W 1023,9 38 0 0,0
09.12.2018 02:00:00 12,6 11,2 11,4 11,1 12,9 22 12 39 21 WSW 1023,4 45 0 0,2
09.12.2018 01:00:00 12,3 11,2 11,0 11,1 12,9 26 14 51 27 WSW 1024,2 4,2 0 0,2
09.12.2018 00:00:00 11,6 10,7 10,7 11,1 12,9 19 10 35 19 SW 1024,2 45 0 0,2
08.12.2018 23:00:00 11,2 10,3 10,4 11,1 12,9 21 11 35 19 SW 1023,8 8 0 0,0
08.12.2018 22:00:00 11,3 9,4 10,1 11,1 12,9 19 10 39 21 SW 1024,3 18 0 0,0
08.12.2018 21:00:00 11,5 9,2 10,4 11,0 12,9 20 11 41 22 SW 1024,6 12 0 0,0
08.12.2018 20:00:00 12,1 9,1 11,4 11,0 12,9 21 11 35 19 SW 1024,5 19 0 0,0
08.12.2018 19:00:00 12,3 9,1 11,4 11,0 12,9 21 11 37 20 SW 1024,7 20 0 0,0
08.12.2018 18:00:00 12,4 9,0 10,7 10,9 12,9 17 9 34 18 SW 1024,9 20 0 0,0
08.12.2018 17:00:00 12,1 9,1 10,7 10,9 12,9 12 6 29 15 SW 1025,2 20 0 0,2
08.12.2018 16:00:00 12,3 9,7 11,1 10,8 12,9 16 8 27 15 SW 1025,6 20 0 0,0
08.12.2018 15:00:00 11,3 10,4 10,6 10,7 12,9 13 7 33 18 W 1026,1 9 0 0,2
08.12.2018 14:00:00 13,0 9,3 12,7 10,7 12,9 18 10 30 16 WSW 1026,5 18 6 0,0
08.12.2018 13:00:00 12,8 9,1 13,0 10,6 12,9 18 10 35 19 WSW 1027,0 19 0 0,0
08.12.2018 12:00:00 13,0 8,9 13,8 10,7 12,9 22 12 34 19 WSW 1027,5 19 60 0,0
08.12.2018 11:00:00 11,7 8,4 11,9 10,7 12,9 18 10 29 15 WSW 1027,9 19 60 0,0
08.12.2018 10:00:00 8,4 8,4 2,6 10,8 12,9 6 4 14 8 SW 1027,8 18 34 0,0
08.12.2018 09:00:00 3,3 3,0 0,1 10,9 12,9 2 1 18 10 N 1027,8 15 0 0,0
08.12.2018 08:00:00 2,1 1,8 0,1 11,0 12,9 3 2 8 4 E 1027,6 7 0 0,0
08.12.2018 07:00:00 2,8 2,5 0,2 11,2 12,9 3 2 10 6 NE 1027,3 2,8 0 0,0
08.12.2018 06:00:00 4,1 3,8 0,7 11,3 12,9 2 1 11 6 WSW 1026,6 16 0 0,0
08.12.2018 05:00:00 4,3 4,2 0,3 11,4 12,9 7 4 12 7 S 1026,6 13 0 0,4
08.12.2018 04:00:00 3,9 3,6 0,2 11,5 13,0 3 2 10 6 WSW 1026,8 13 0 0,0
08.12.2018 03:00:00 3,9 2,6 0,4 11,6 12,9 5 3 11 6 SW 1026,5 11 0 0,0
08.12.2018 02:00:00 4,4 3,5 0,4 11,7 12,9 4 2 8 4 WSW 1026,3 5 0 0,0
08.12.2018 01:00:00 6,3 4,5 1,8 11,8 12,9 4 2 19 11 NW 1026,6 17 0 0,0
08.12.2018 00:00:00 7,7 5,5 5,7 11,9 12,9 11 6 19 11 WSW 1026,3 34 0 0,0
07.12.2018 23:00:00 8,3 6,6 4,1 11,9 12,9 11 6 20 11 WSW 1025,9 18 0 0,0
07.12.2018 22:00:00 7,5 5,6 3,6 12,0 12,9 10 5 18 10 WSW 1025,6 19 0 0,0
07.12.2018 21:00:00 8,2 7,0 5,1 12,0 12,9 8 5 19 10 W 1025,0 16 0 0,0
07.12.2018 20:00:00 10,4 9,2 9,3 12,0 12,9 13 7 36 19 W 1024,1 15 0 0,0
07.12.2018 19:00:00 11,0 9,3 9,5 12,0 12,9 24 13 43 23 WSW 1023,3 19 0 0,0
07.12.2018 18:00:00 10,9 9,7 9,8 12,0 12,9 15 8 29 15 WSW 1022,3 34 0 0,0
07.12.2018 17:00:00 10,6 9,5 10,0 12,0 12,9 21 11 52 28 WSW 1021,7 8 0 1,0
07.12.2018 16:00:00 12,2 9,8 10,9 12,0 12,9 27 14 44 24 SW 1020,7 33 0 0,0
07.12.2018 15:00:00 12,4 9,4 11,8 12,0 12,9 22 12 47 25 SW 1020,4 16 0 0,0
07.12.2018 14:00:00 13,5 8,8 13,6 11,9 12,9 21 11 37 20 S 1020,6 47 1 0,0
07.12.2018 13:00:00 13,4 9,1 13,5 11,9 12,9 21 12 40 22 SSW 1022,0 40 0 0,0
07.12.2018 12:00:00 12,9 9,7 13,0 11,9 12,9 15 8 29 16 S 1022,6 20 0 0,0
07.12.2018 11:00:00 12,4 9,8 11,7 11,9 12,9 15 8 26 14 S 1023,9 36 0 0,0
07.12.2018 10:00:00 11,8 9,9 11,3 11,9 12,9 12 6 22 12 SSW 1024,7 20 0 0,0
07.12.2018 09:00:00 11,7 9,9 10,9 12,0 12,9 12 7 22 12 SSW 1024,4 31 0 0,0
07.12.2018 08:00:00 11,4 10,1 10,3 12,0 12,9 11 6 19 10 S 1024,3 31 0 0,0
07.12.2018 07:00:00 11,2 9,6 10,5 12,0 12,9 6 3 15 8 S 1024,6 48 0 0,0
07.12.2018 06:00:00 11,3 9,9 10,1 12,0 12,9 14 8 23 13 SW 1024,8 19 0 0,0
07.12.2018 05:00:00 11,1 10,0 9,6 12,1 12,9 5 3 13 7 S 1025,5 48 0 0,0
07.12.2018 04:00:00 10,8 10,0 9,5 12,1 12,9 3 2 9 5 S 1026,0 47 0 0,0
07.12.2018 03:00:00 10,9 10,4 9,9 12,1 12,9 3 2 11 6 S 1026,5 20 0 0,0
07.12.2018 02:00:00 10,1 9,6 6,4 12,2 12,9 4 2 9 5 W 1026,8 11 0 0,0
07.12.2018 01:00:00 10,8 10,3 6,3 12,2 12,9 6 3 16 9 SW 1027,5 19 0 0,0
07.12.2018 00:00:00 11,7 10,6 10,3 12,2 12,8 7 4 16 8 WSW 1028,0 31 0 0,0
06.12.2018 23:00:00 12,2 11,1 11,3 12,2 12,8 9 5 18 10 SW 1028,0 30 0 0,0
06.12.2018 22:00:00 12,1 11,0 10,9 12,2 12,9 8 5 20 11 SW 1028,4 20 0 0,0
06.12.2018 21:00:00 12,4 11,3 11,5 12,2 12,8 9 5 14 8 SW 1028,4 34 0 0,0
06.12.2018 20:00:00 12,3 11,2 11,4 12,2 12,9 6 4 13 7 SW 1028,7 43 0 0,0
06.12.2018 19:00:00 12,6 11,3 11,9 12,1 12,8 9 5 24 13 WSW 1028,6 50 0 0,0
06.12.2018 18:00:00 12,8 11,5 12,2 12,1 12,8 13 7 30 16 W 1028,2 45 0 0,0
06.12.2018 17:00:00 13,3 11,7 12,8 12,0 12,8 12 6 28 15 W 1027,5 55 2 0,0
06.12.2018 16:00:00 14,0 11,9 13,4 11,9 12,8 19 11 29 16 W 1027,3 55 4 0,0
06.12.2018 15:00:00 14,2 12,1 13,9 11,8 12,8 16 9 33 18 WNW 1027,1 56 17 0,0
06.12.2018 14:00:00 14,4 12,9 13,5 11,8 12,8 21 11 33 18 W 1027,3 19 10 0,2
06.12.2018 13:00:00 13,6 12,8 13,4 11,7 12,8 15 8 29 16 W 1027,5 10 0 0,0
06.12.2018 12:00:00 13,9 12,5 13,5 11,7 12,8 16 9 31 17 W 1027,8 53 0 0,0
06.12.2018 11:00:00 13,5 12,4 13,5 11,7 12,8 16 9 28 15 WSW 1027,7 19 0 0,0
06.12.2018 10:00:00 13,0 12,1 12,1 11,6 12,9 12 6 24 13 WSW 1027,1 56 0 0,0
06.12.2018 09:00:00 12,5 11,9 12,0 11,6 12,8 16 8 29 16 W 1026,9 4,0 0 0,4
06.12.2018 08:00:00 12,4 11,8 11,9 11,6 12,8 12 7 25 14 WSW 1026,0 10 0 0,2
06.12.2018 07:00:00 12,5 11,7 11,8 11,6 12,8 10 5 27 14 W 1025,5 14 0 0,0
06.12.2018 06:00:00 12,3 11,7 11,7 11,6 12,8 14 8 27 15 W 1025,1 17 0 0,8
06.12.2018 05:00:00 12,5 11,4 11,8 11,6 12,8 12 6 27 15 WSW 1024,7 5 0 0,0
06.12.2018 04:00:00 12,6 11,0 10,8 11,6 12,8 15 8 26 14 WSW 1024,2 19 0 0,0
06.12.2018 03:00:00 11,8 10,4 10,1 11,6 12,8 13 7 24 13 SW 1024,3 18 0 0,0
06.12.2018 02:00:00 11,9 10,5 9,7 11,7 12,8 14 8 25 13 SSW 1024,6 20 0 0,0
06.12.2018 01:00:00 11,8 10,5 9,8 11,7 12,8 6 3 16 8 SSW 1024,8 20 0 0,0
06.12.2018 00:00:00 11,9 10,8 9,4 11,7 12,8 6 4 21 11 SSW 1025,2 20 0 0,0

tt = temperature
td = dewpoint
tt 5cm = temperature 5cm
tt -20cm = temperature -20cm
tt -100cm = temperature -100cm
ff = wind speed
fx = gusts
dd = wind direction
ppp = reduced air pressure
vv = visibility
sd = sunshine duration
rr = precipitation

Next stations